GW7746 Weather Reports


time (UTC)temp
C
wind
direction
speed
KPH
gust
KPH
rain 1hr
cm
rain 24hr
cm
rain mn
cm
humidity
%
barometer
mb
20260905222501 25 251 0.0 3.2 0.00 0.00 0.00 57 1010.4
20260905222001 25 360 0.0 0.0 0.00 0.00 0.00 59 1010.4
20260905221501 25 121 0.0 1.6 0.00 0.00 0.00 56 1010.4
20260905221001 25 3 0.0 1.6 0.00 0.00 0.00 56 1010.4
20260905220501 25 201 0.0 1.6 0.00 0.00 0.00 57 1010.3
20260905220001 26 199 0.0 3.2 0.00 0.00 0.00 55 1010.2
20260905215501 26 153 1.6 4.8 0.00 0.00 0.00 55 1010.3
20260905215001 26 237 3.2 11.3 0.00 0.00 0.00 54 1010.2
20260905214501 26 181 0.0 3.2 0.00 0.00 0.00 54 1010.3
20260905214001 26 198 0.0 3.2 0.00 0.00 0.00 53 1010.4
20260905213501 26 201 0.0 3.2 0.00 0.00 0.00 54 1010.2
20260905213001 26 267 0.0 1.6 0.00 0.00 0.00 53 1010.1
20260905212501 26 358 0.0 1.6 0.00 0.00 0.00 52 1010.1
20260905212002 26 230 0.0 3.2 0.00 0.00 0.00 52 1010.1
20260905211502 26 113 0.0 0.0 0.00 0.00 0.00 51 1010.0
20260905211002 26 182 1.6 4.8 0.00 0.00 0.00 52 1010.0
20260905210501 26 197 1.6 3.2 0.00 0.00 0.00 52 1009.9
20260905210002 26 164 0.0 1.6 0.00 0.00 0.00 50 1009.9
20260905205501 26 71 1.6 6.4 0.00 0.00 0.00 52 1009.9
20260905205001 26 153 0.0 1.6 0.00 0.00 0.00 54 1009.9
20260905204502 27 204 1.6 3.2 0.00 0.00 0.00 53 1009.8
20260905204001 27 231 0.0 3.2 0.00 0.00 0.00 51 1009.7
20260905203501 26 184 1.6 3.2 0.00 0.00 0.00 52 1009.6
20260905203001 26 178 0.0 3.2 0.00 0.00 0.00 55 1009.6
20260905202501 26 178 0.0 1.6 0.00 0.00 0.00 52 1009.7
20260905202001 26 132 0.0 1.6 0.00 0.00 0.00 52 1009.6
20260905201501 26 215 1.6 6.4 0.00 0.00 0.00 53 1009.7
20260905201001 26 192 3.2 4.8 0.00 0.00 0.00 55 1009.7
20260905200501 26 191 1.6 3.2 0.00 0.00 0.00 52 1009.8
20260905200001 26 153 0.0 1.6 0.00 0.00 0.00 52 1009.8
20260905195501 26 168 1.6 4.8 0.00 0.00 0.00 53 1009.7
20260905195001 26 190 1.6 3.2 0.00 0.00 0.00 55 1009.6
20260905194501 26 179 0.0 3.2 0.00 0.00 0.00 52 1009.7
20260905194001 26 140 0.0 3.2 0.00 0.00 0.00 52 1009.7
20260905193501 26 175 1.6 6.4 0.00 0.00 0.00 53 1009.7
20260905193001 26 183 0.0 3.2 0.00 0.00 0.00 54 1009.7
20260905192501 27 191 1.6 6.4 0.00 0.00 0.00 52 1009.8
20260905192002 26 201 1.6 6.4 0.00 0.00 0.00 51 1009.7
20260905191501 26 193 3.2 8.0 0.00 0.00 0.00 53 1009.7
20260905191001 26 229 0.0 3.2 0.00 0.00 0.00 53 1009.8
20260905190503 26 167 0.0 3.2 0.00 0.00 0.00 52 1009.9
20260905190002 26 176 1.6 6.4 0.00 0.00 0.00 53 1009.9
20260905185501 26 132 0.0 3.2 0.00 0.00 0.00 53 1009.8
20260905185001 26 156 0.0 1.6 0.00 0.00 0.00 52 1009.8
20260905184501 26 214 0.0 1.6 0.00 0.00 0.00 53 1009.9
20260905184001 26 204 3.2 6.4 0.00 0.00 0.00 52 1009.9
20260905183502 26 190 1.6 6.4 0.00 0.00 0.00 53 1010.0
20260905183001 26 206 0.0 3.2 0.00 0.00 0.00 56 1010.0
20260905182501 26 26 1.6 4.8 0.00 0.00 0.00 53 1010.0
20260905182002 26 229 3.2 6.4 0.00 0.00 0.00 52 1010.0
20260905181501 25 224 1.6 3.2 0.00 0.00 0.00 56 1010.1
20260905181001 26 196 1.6 3.2 0.00 0.00 0.00 55 1010.2
20260905180501 26 360 0.0 0.0 0.00 0.00 0.00 54 1010.2
20260905180001 26 136 1.6 3.2 0.00 0.00 0.00 54 1010.2
20260905175501 26 37 0.0 3.2 0.00 0.00 0.00 53 1010.2
20260905175001 26 198 1.6 3.2 0.00 0.00 0.00 52 1010.3
20260905174501 26 186 1.6 3.2 0.00 0.00 0.00 54 1010.3
20260905174001 26 226 0.0 3.2 0.00 0.00 0.00 54 1010.4
20260905173502 26 189 1.6 6.4 0.00 0.00 0.00 53 1010.3
20260905173001 26 147 1.6 3.2 0.00 0.00 0.00 53 1010.3
20260905172501 26 217 1.6 6.4 0.00 0.00 0.00 53 1010.4
20260905172001 26 200 1.6 6.4 0.00 0.00 0.00 55 1010.4
20260905171501 26 245 0.0 3.2 0.00 0.00 0.00 56 1010.5
20260905171002 26 206 1.6 3.2 0.00 0.00 0.00 56 1010.5
20260905170501 26 146 1.6 3.2 0.00 0.00 0.00 53 1010.4
20260905170001 26 179 3.2 11.3 0.00 0.00 0.00 55 1010.5
20260905165502 26 151 0.0 1.6 0.00 0.00 0.00 55 1010.5
20260905165002 26 166 0.0 1.6 0.00 0.00 0.00 56 1010.6
20260905164502 26 192 0.0 3.2 0.00 0.00 0.00 55 1010.6
20260905164001 26 179 1.6 3.2 0.00 0.00 0.00 56 1010.6
20260905163501 26 195 0.0 3.2 0.00 0.00 0.00 54 1010.6
20260905163001 26 194 1.6 6.4 0.00 0.00 0.00 56 1010.6
20260905162501 26 68 0.0 3.2 0.00 0.00 0.00 54 1010.5
20260905162001 26 199 1.6 6.4 0.00 0.00 0.00 57 1010.6
20260905161502 26 155 1.6 3.2 0.00 0.00 0.00 58 1010.5
20260905161001 26 184 1.6 3.2 0.00 0.00 0.00 57 1010.6
20260905160502 26 213 0.0 3.2 0.00 0.00 0.00 55 1010.5
20260905160002 26 203 3.2 8.0 0.00 0.00 0.00 55 1010.5
20260905155501 26 238 0.0 3.2 0.00 0.00 0.00 53 1010.7
20260905155001 26 170 3.2 6.4 0.00 0.00 0.00 54 1010.5
20260905154501 27 189 1.6 4.8 0.00 0.00 0.00 52 1010.7
20260905154001 26 191 1.6 3.2 0.00 0.00 0.00 53 1010.6
20260905153501 26 207 1.6 4.8 0.00 0.00 0.00 55 1010.5
20260905153002 26 215 1.6 6.4 0.00 0.00 0.00 55 1010.6
20260905152501 26 202 1.6 4.8 0.00 0.00 0.00 54 1010.6
20260905152001 26 164 3.2 4.8 0.00 0.00 0.00 56 1010.6
20260905151501 26 184 1.6 6.4 0.00 0.00 0.00 58 1010.6
20260905151001 25 168 0.0 3.2 0.00 0.00 0.00 58 1010.6
20260905150503 25 191 1.6 3.2 0.00 0.00 0.00 60 1010.7
20260905150004 25 192 1.6 3.2 0.00 0.00 0.00 61 1010.7
20260905145501 25 171 1.6 4.8 0.00 0.00 0.00 60 1010.7
20260905145002 25 178 1.6 6.4 0.00 0.00 0.00 61 1010.6
20260905144501 25 197 1.6 3.2 0.00 0.00 0.00 62 1010.6
20260905144002 25 209 0.0 0.0 0.00 0.00 0.00 62 1010.6
20260905143505 25 276 1.6 3.2 0.00 0.00 0.00 61 1010.6
20260905143001 25 174 1.6 3.2 0.00 0.00 0.00 61 1010.7
20260905142500 26 196 0.0 3.2 0.00 0.00 0.00 58 1010.7
20260905142001 25 297 1.6 3.2 0.00 0.00 0.00 59 1010.7
20260905141501 25 275 0.0 3.2 0.00 0.00 0.00 60 1010.6
20260905141001 25 244 0.0 1.6 0.00 0.00 0.00 63 1010.6
20260905140501 24 218 0.0 1.6 0.00 0.00 0.00 64 1010.5
20260905140001 23 306 0.0 1.6 0.00 0.00 0.00 66 1010.6
20260905135501 23 130 1.6 1.6 0.00 0.00 0.00 66 1010.6
20260905135001 22 183 1.6 3.2 0.00 0.00 0.00 68 1010.6
20260905134502 22 360 0.0 0.0 0.00 0.00 0.00 69 1010.6
20260905134001 22 200 0.0 0.0 0.00 0.00 0.00 69 1010.6
20260905133501 22 210 1.6 1.6 0.00 0.00 0.00 70 1010.7
20260905133001 22 187 1.6 3.2 0.00 0.00 0.00 71 1010.6
20260905132501 21 360 0.0 0.0 0.00 0.00 0.00 72 1010.7
20260905132001 21 360 0.0 0.0 0.00 0.00 0.00 74 1010.7
20260905131504 21 99 1.6 3.2 0.00 0.00 0.00 74 1010.7
20260905131001 21 360 0.0 0.0 0.00 0.00 0.00 73 1010.7
20260905130501 21 360 0.0 0.0 0.00 0.00 0.00 74 1010.8
20260905130001 21 240 0.0 0.0 0.00 0.00 0.00 74 1010.8
20260905125501 21 340 1.6 3.2 0.00 0.00 0.00 76 1010.9
20260905125002 20 127 0.0 0.0 0.00 0.00 0.00 77 1010.8
20260905124501 20 207 0.0 0.0 0.00 0.00 0.00 77 1010.9
20260905124001 20 214 1.6 1.6 0.00 0.00 0.00 76 1010.9
20260905123501 20 164 0.0 1.6 0.00 0.00 0.00 76 1010.9
20260905123002 20 141 0.0 1.6 0.00 0.00 0.00 76 1010.9
20260905122501 20 106 0.0 0.0 0.00 0.00 0.00 77 1011.0
20260905122001 20 134 0.0 0.0 0.00 0.00 0.00 78 1011.1
20260905121501 20 284 1.6 1.6 0.00 0.00 0.00 79 1011.1
20260905121001 19 139 0.0 1.6 0.00 0.00 0.00 79 1011.0
20260905120502 19 162 1.6 1.6 0.00 0.00 0.00 80 1010.9
20260905120001 19 100 0.0 1.6 0.00 0.00 0.00 80 1010.9
20260905115501 18 92 1.6 3.2 0.00 0.00 0.00 83 1010.9
20260905115001 18 120 0.0 0.0 0.00 0.00 0.00 83 1010.9
20260905114502 18 360 0.0 0.0 0.00 0.00 0.00 83 1010.7
20260905114003 18 360 0.0 0.0 0.00 0.00 0.00 83 1010.6
20260905113501 18 314 0.0 3.2 0.00 0.00 0.00 83 1010.6
20260905113003 18 316 0.0 1.6 0.00 0.00 0.00 84 1010.5
20260905112501 17 334 0.0 0.0 0.00 0.00 0.00 85 1010.5
20260905112001 17 172 0.0 1.6 0.00 0.00 0.00 86 1010.4
20260905111501 17 289 0.0 1.6 0.00 0.00 0.00 86 1010.3
20260905111001 17 9 1.6 3.2 0.00 0.00 0.00 86 1010.2
20260905110502 17 156 0.0 0.0 0.00 0.00 0.00 86 1010.2
20260905110001 17 360 0.0 0.0 0.00 0.00 0.00 86 1010.1
20260905105503 17 147 0.0 1.6 0.00 0.00 0.00 86 1010.1
20260905105001 17 25 3.2 3.2 0.00 0.00 0.00 86 1010.1
20260905104501 17 360 0.0 0.0 0.00 0.00 0.00 86 1010.0
20260905104002 17 31 0.0 0.0 0.00 0.00 0.00 86 1010.0
20260905103501 17 213 0.0 1.6 0.00 0.00 0.00 85 1010.0
20260905103002 17 360 0.0 0.0 0.00 0.00 0.00 85 1010.0
20260905102501 17 201 0.0 0.0 0.00 0.00 0.00 85 1010.0
20260905102001 17 90 1.6 3.2 0.00 0.00 0.00 85 1010.0
20260905101501 17 54 0.0 1.6 0.00 0.00 0.00 85 1009.9
20260905101001 17 360 0.0 0.0 0.00 0.00 0.00 84 1009.9
20260905100510 17 330 0.0 0.0 0.00 0.00 0.00 83 1009.9
20260905100001 18 347 0.0 1.6 0.00 0.00 0.00 83 1009.9
20260905095501 18 238 0.0 3.2 0.00 0.00 0.00 83 1009.8
20260905095001 18 353 0.0 0.0 0.00 0.00 0.00 83 1009.8
20260905094501 18 360 0.0 0.0 0.00 0.00 0.00 83 1009.7
20260905094002 18 188 0.0 1.6 0.00 0.00 0.00 82 1009.7
20260905093501 18 21 0.0 3.2 0.00 0.00 0.00 81 1009.7
20260905093002 18 360 0.0 0.0 0.00 0.00 0.00 80 1009.7
20260905092501 18 360 0.0 0.0 0.00 0.00 0.00 80 1009.7
20260905092001 18 286 0.0 0.0 0.00 0.00 0.00 80 1009.7
20260905091501 18 360 0.0 0.0 0.00 0.00 0.00 79 1009.7
20260905091001 19 117 1.6 1.6 0.00 0.00 0.00 79 1009.7
20260905090501 19 229 0.0 1.6 0.00 0.00 0.00 78 1009.7
20260905090001 19 360 0.0 0.0 0.00 0.00 0.00 78 1009.7
20260905085501 20 285 0.0 1.6 0.00 0.00 0.00 77 1009.7
20260905085002 20 147 0.0 0.0 0.00 0.00 0.00 76 1009.7
20260905084501 20 360 0.0 0.0 0.00 0.00 0.00 76 1009.7
20260905084001 20 360 0.0 0.0 0.00 0.00 0.00 76 1009.7
20260905083501 20 138 0.0 1.6 0.00 0.00 0.00 75 1009.8
20260905083002 20 360 0.0 0.0 0.00 0.00 0.00 75 1009.8
20260905082502 20 129 0.0 0.0 0.00 0.00 0.00 75 1009.7
20260905082001 20 145 0.0 0.0 0.00 0.00 0.00 75 1009.7
20260905081502 20 159 0.0 0.0 0.00 0.00 0.00 74 1009.7
20260905081003 20 15 1.6 1.6 0.00 0.00 0.00 74 1009.8
20260905080501 20 360 0.0 0.0 0.00 0.00 0.00 74 1009.7
20260905080003 20 360 0.0 0.0 0.00 0.00 0.00 73 1009.8
20260905075502 21 360 0.0 0.0 0.00 0.00 0.00 73 1009.7
20260905075002 21 360 0.0 0.0 0.00 0.00 0.00 73 1009.7
20260905074503 21 360 0.0 0.0 0.00 0.00 0.00 73 1009.7
20260905074001 21 340 0.0 0.0 0.00 0.00 0.00 73 1009.7
20260905073501 20 67 0.0 1.6 0.00 0.00 0.00 74 1009.6
20260905073001 20 360 0.0 0.0 0.00 0.00 0.00 74 1009.6
20260905072501 20 154 1.6 1.6 0.00 0.00 0.00 74 1009.6
20260905072001 20 360 0.0 0.0 0.00 0.00 0.00 75 1009.7
20260905071501 20 360 0.0 0.0 0.00 0.00 0.00 75 1009.7
20260905071001 20 76 0.0 0.0 0.00 0.00 0.00 75 1009.7
20260905070503 20 176 1.6 1.6 0.00 0.00 0.00 77 1009.8
20260905070002 20 178 0.0 0.0 0.00 0.00 0.00 77 1009.8
20260905065501 20 229 0.0 0.0 0.00 0.00 0.00 77 1009.9
20260905065001 20 192 1.6 1.6 0.00 0.00 0.00 77 1009.9
20260905064501 20 360 0.0 0.0 0.00 0.00 0.00 77 1009.9
20260905064001 20 360 0.0 0.0 0.00 0.00 0.00 78 1010.0
20260905063501 20 114 1.6 4.8 0.00 0.00 0.00 79 1010.0
20260905063002 20 360 0.0 0.0 0.00 0.00 0.00 80 1010.1
20260905062501 20 60 1.6 1.6 0.00 0.00 0.00 81 1010.1
20260905062001 20 360 0.0 0.0 0.00 0.00 0.00 82 1010.0
20260905061501 20 201 0.0 0.0 0.00 0.00 0.00 82 1010.1
20260905061001 20 160 0.0 0.0 0.00 0.00 0.00 82 1010.1
20260905060501 20 272 0.0 1.6 0.00 0.00 0.00 82 1010.1
20260905060001 20 360 0.0 0.0 0.00 0.00 0.00 82 1010.2
20260905055502 21 360 0.0 0.0 0.00 0.00 0.00 82 1010.2
20260905055001 21 360 0.0 0.0 0.00 0.00 0.00 82 1010.3
20260905054501 21 360 0.0 0.0 0.00 0.00 0.00 82 1010.3
20260905054001 21 360 0.0 0.0 0.00 0.00 0.00 82 1010.4
20260905053501 21 360 0.0 0.0 0.00 0.00 0.00 82 1010.5
20260905053001 21 133 0.0 0.0 0.00 0.00 0.00 82 1010.4
20260905052501 21 220 0.0 0.0 0.00 0.00 0.00 82 1010.5
20260905052001 21 360 0.0 0.0 0.00 0.00 0.00 82 1010.4
20260905051501 21 360 0.0 0.0 0.00 0.00 0.00 82 1010.4
20260905051001 21 360 0.0 0.0 0.00 0.00 0.00 81 1010.5
20260905050500 21 360 0.0 0.0 0.00 0.00 0.00 81 1010.6
20260905050001 21 91 0.0 0.0 0.00 0.00 0.00 82 1010.6
20260905045501 21 360 0.0 0.0 0.00 0.00 0.00 82 1010.6
20260905045003 21 170 0.0 0.0 0.00 0.00 0.00 83 1010.6
20260905044502 21 360 0.0 0.0 0.00 0.00 0.00 83 1010.6
20260905044002 21 116 0.0 0.0 0.00 0.00 0.00 83 1010.7
20260905043501 21 360 0.0 0.0 0.00 0.00 0.00 83 1010.8
20260905043002 21 360 0.0 0.0 0.00 0.00 0.00 83 1010.8
20260905042501 21 360 0.0 0.0 0.00 0.00 0.00 83 1010.8
20260905042001 21 360 0.0 0.0 0.00 0.00 0.00 83 1010.8
20260905041501 21 330 0.0 1.6 0.00 0.00 0.00 83 1010.8
20260905041001 21 360 0.0 0.0 0.00 0.00 0.00 83 1010.8
20260905040501 21 360 0.0 0.0 0.00 0.00 0.00 83 1010.8
20260905040001 21 360 0.0 0.0 0.00 0.00 0.05 82 1010.8
20260905035501 21 360 0.0 0.0 0.00 0.00 0.05 82 1010.9
20260905035002 21 360 0.0 0.0 0.00 0.00 0.05 83 1010.9
20260905034501 21 360 0.0 0.0 0.00 0.00 0.05 84 1010.9
20260905034001 21 360 0.0 0.0 0.00 0.00 0.05 84 1010.9
20260905033501 21 360 0.0 0.0 0.00 0.00 0.05 84 1010.9
20260905033002 21 174 0.0 0.0 0.00 0.00 0.05 85 1010.8
20260905032501 21 128 0.0 0.0 0.00 0.00 0.05 85 1010.9
20260905032001 21 34 0.0 1.6 0.00 0.00 0.05 85 1010.8
20260905031504 21 138 0.0 0.0 0.00 0.00 0.05 85 1010.9
20260905031001 21 359 0.0 1.6 0.00 0.00 0.05 85 1010.9
20260905030501 21 105 1.6 1.6 0.00 0.00 0.05 85 1010.8
20260905030001 21 107 0.0 0.0 0.00 0.00 0.05 85 1010.7
20260905025501 21 360 0.0 0.0 0.00 0.00 0.05 86 1010.7
20260905025001 21 237 0.0 0.0 0.00 0.00 0.05 85 1010.7
20260905024501 21 360 0.0 0.0 0.00 0.00 0.05 86 1010.7
20260905024001 21 95 0.0 1.6 0.00 0.00 0.05 86 1010.6
20260905023501 21 147 0.0 1.6 0.00 0.00 0.05 86 1010.6
20260905023001 21 360 0.0 0.0 0.00 0.00 0.05 86 1010.6
20260905022502 21 210 0.0 1.6 0.00 0.00 0.05 86 1010.5
20260905022001 21 360 0.0 0.0 0.00 0.00 0.05 86 1010.6
20260905021502 21 127 0.0 1.6 0.00 0.00 0.05 86 1010.6
20260905021002 21 360 0.0 0.0 0.00 0.00 0.05 85 1010.7
20260905020502 21 360 0.0 0.0 0.00 0.00 0.05 85 1010.8
20260905020001 21 65 0.0 0.0 0.00 0.00 0.05 85 1010.8
20260905015502 21 360 0.0 0.0 0.00 0.00 0.05 85 1010.7
20260905015001 21 360 0.0 0.0 0.00 0.00 0.05 84 1010.7
20260905014501 21 360 0.0 0.0 0.00 0.00 0.05 84 1010.7
20260905014002 21 237 0.0 1.6 0.00 0.00 0.05 83 1010.6
20260905013502 21 360 0.0 0.0 0.00 0.00 0.05 83 1010.7
20260905013001 22 360 0.0 0.0 0.00 0.00 0.05 82 1010.6
20260905012502 22 360 0.0 0.0 0.00 0.00 0.05 82 1010.6
20260905012003 22 360 0.0 0.0 0.00 0.00 0.05 82 1010.7
20260905011502 22 67 0.0 1.6 0.00 0.00 0.05 82 1010.8
20260905011001 22 320 0.0 0.0 0.00 0.00 0.05 81 1010.7
20260905010501 22 360 0.0 0.0 0.00 0.00 0.05 81 1010.8
20260905010001 22 208 0.0 0.0 0.00 0.00 0.05 81 1010.9
20260905005501 22 360 0.0 0.0 0.00 0.00 0.05 81 1010.9
20260905005001 22 360 0.0 0.0 0.00 0.00 0.05 80 1010.7
20260905004501 22 360 0.0 0.0 0.00 0.00 0.05 80 1010.6
20260905004002 22 360 0.0 0.0 0.00 0.00 0.05 79 1010.7
20260905003501 23 114 0.0 0.0 0.00 0.00 0.05 79 1010.6
20260905003001 23 360 0.0 0.0 0.00 0.00 0.05 78 1010.6
20260905002501 23 45 0.0 0.0 0.00 0.00 0.05 77 1010.6
20260905002001 23 360 0.0 0.0 0.00 0.00 0.05 76 1010.6
20260905001503 23 152 0.0 0.0 0.00 0.00 0.05 75 1010.5
20260905001001 23 360 0.0 0.0 0.00 0.00 0.05 75 1010.5
20260905000501 23 360 0.0 0.0 0.00 0.00 0.05 74 1010.5
20260905000004 24 360 0.0 0.0 0.00 0.00 0.05 74 1010.5
20260904235501 24 360 0.0 0.0 0.00 0.00 0.05 73 1010.5
20260904235001 24 360 0.0 0.0 0.00 0.00 0.05 72 1010.5
20260904234501 25 236 0.0 0.0 0.00 0.00 0.05 71 1010.4
20260904234002 25 188 0.0 0.0 0.00 0.00 0.05 71 1010.4
20260904233501 25 360 0.0 0.0 0.00 0.00 0.05 70 1010.3
20260904233001 25 187 0.0 1.6 0.00 0.00 0.05 68 1010.4
20260904232501 25 360 0.0 0.0 0.00 0.00 0.05 68 1010.4
20260904232001 26 272 0.0 1.6 0.00 0.00 0.05 67 1010.2
20260904231501 26 263 0.0 0.0 0.00 0.00 0.05 66 1010.2
20260904231003 26 360 0.0 0.0 0.00 0.00 0.05 65 1010.2
20260904230501 26 360 0.0 0.0 0.00 0.00 0.05 63 1010.1
20260904230002 26 360 0.0 0.0 0.00 0.00 0.05 62 1010.2
20260904225501 26 260 0.0 0.0 0.00 0.00 0.05 61 1010.2
20260904225001 27 105 1.6 1.6 0.00 0.00 0.05 61 1010.3
20260904224502 27 360 0.0 0.0 0.00 0.00 0.05 60 1010.3
20260904224003 27 360 0.0 0.0 0.00 0.00 0.05 60 1010.3
20260904223501 27 360 0.0 0.0 0.00 0.00 0.05 59 1010.3
20260904223001 27 223 0.0 0.0 0.00 0.00 0.05 55 1010.3